Weather reports worldwide

Advertisment
Granada/Aeropuerto, Spain (8419): temperature & dewpoint: 05.12.2019 09:00:00 - 11.12.2019 09:00:00 (CET)Granada/Aeropuerto, Spain (8419): wind speed: 05.12.2019 09:00:00 - 11.12.2019 09:00:00 (CET)Granada/Aeropuerto, Spain (8419): wind direction: 05.12.2019 09:00:00 - 11.12.2019 09:00:00 (CET)Granada/Aeropuerto, Spain (8419): reduced air pressure: 05.12.2019 09:00:00 - 11.12.2019 09:00:00 (CET)Granada/Aeropuerto, Spain (8419): visibility: 05.12.2019 09:00:00 - 11.12.2019 09:00:00 (CET)
Date & Time tt [°C] td [°C] ff [km/h] ff [kn] dd ppp [hPa] vv [km]
11.12.2019 09:00:00 -0,4 -1,2 0 0 N 1029,4 11
11.12.2019 08:00:00 -1,0 -1,8 0 0 N 1029,5 20
11.12.2019 07:00:00 -0,9 -1,7 0 0 N 1029,1 15
11.12.2019 06:00:00 -1,0 -1,8 0 0 N 1029,0 15
11.12.2019 05:00:00 -0,6 -1,4 0 0 N 1028,9 18
11.12.2019 04:00:00 -0,6 -1,5 0 0 N 1029,4 16
11.12.2019 03:00:00 0,0 -1,2 0 0 N 1029,1 22
11.12.2019 02:00:00 1,1 -0,2 0 0 N 1028,9 23
11.12.2019 01:00:00 1,7 0,1 0 0 N 1029,2 28
11.12.2019 00:00:00 2,5 0,9 8 4 WSW 1029,1 30
10.12.2019 23:00:00 3,0 0,7 0 0 N 1028,7 29
10.12.2019 22:00:00 4,4 1,4 2 1 S 1028,3 25
10.12.2019 21:00:00 5,8 1,5 0 0 N 1028,0 30
10.12.2019 20:00:00 7,0 1,7 4 2 S 1027,5 30
10.12.2019 19:00:00 8,9 2,8 9 5 SW 1026,5 25
10.12.2019 18:00:00 12,7 4,0 0 0 N 1025,1 22
10.12.2019 17:00:00 17,9 0,1 0 0 N 1023,9 30
10.12.2019 16:00:00 17,5 -0,7 0 0 N 1024,1 25
10.12.2019 15:00:00 17,5 0,1 0 0 N 1024,5 25
10.12.2019 14:00:00 14,8 1,9 0 0 N 1025,8 25
10.12.2019 13:00:00 12,5 3,4 4 2 E 1027,5 25
10.12.2019 12:00:00 10,7 4,3 0 0 N 1029,1 30
10.12.2019 11:00:00 7,9 4,3 0 0 N 1030,1 20
10.12.2019 10:00:00 3,4 2,6 0 0 N 1031,3 22
10.12.2019 09:00:00 0,3 -0,3 0 0 N 1032,1 12
10.12.2019 08:00:00 0,0 -0,6 0 0 N 1032,2 12
10.12.2019 07:00:00 0,4 -0,2 0 0 N 1031,7 10
10.12.2019 06:00:00 0,9 0,2 0 0 N 1031,6 10
10.12.2019 05:00:00 2,3 1,7 0 0 N 1031,3 13
10.12.2019 04:00:00 2,7 1,8 4 2 SSE 1031,5 10
10.12.2019 03:00:00 4,8 3,8 0 0 N 1030,9 11
10.12.2019 02:00:00 5,8 5,1 2 1 WSW 1030,8 14
10.12.2019 01:00:00 6,4 5,5 0 0 N 1031,1 8
10.12.2019 00:00:00 6,7 5,3 0 0 N 1031,1 12
09.12.2019 23:00:00 7,8 4,9 0 0 N 1030,5 26
09.12.2019 22:00:00 8,1 7,0 0 0 N 1030,3 10
09.12.2019 21:00:00 8,9 8,0 4 2 W 1029,9 11
09.12.2019 20:00:00 9,5 8,3 9 5 W 1029,5 13
09.12.2019 19:00:00 10,0 7,9 9 5 S 1029,1 25
09.12.2019 18:00:00 15,0 9,0 5 3 W 1027,4 14
09.12.2019 17:00:00 16,5 9,9 4 2 W 1026,6 30
09.12.2019 16:00:00 17,7 9,7 4 2 SSW 1026,1 25
09.12.2019 15:00:00 16,9 9,5 4 2 SW 1026,8 30
09.12.2019 14:00:00 15,4 9,1 0 0 N 1027,7 30
09.12.2019 13:00:00 13,8 9,4 2 1 NNE 1028,7 15
09.12.2019 12:00:00 12,2 8,1 0 0 N 1030,2 17
09.12.2019 11:00:00 9,0 6,7 2 1 E 1031,2 8
09.12.2019 10:00:00 7,0 6,1 4 2 N 1030,9 10
09.12.2019 09:00:00 5,0 4,6 8 4 WSW 1030,8 12
09.12.2019 08:00:00 3,1 2,5 0 0 N 1031,2 8
09.12.2019 07:00:00 3,6 3,0 0 0 N 1030,2 10
09.12.2019 06:00:00 4,4 3,7 4 2 SSW 1029,7 10
09.12.2019 05:00:00 5,0 4,1 0 0 N 1029,4 12
09.12.2019 04:00:00 6,2 4,7 4 2 ENE 1029,6 13
09.12.2019 03:00:00 7,7 5,2 2 1 ESE 1028,9 18
09.12.2019 02:00:00 8,7 6,0 8 4 SW 1028,6 21
09.12.2019 01:00:00 9,1 6,7 11 6 W 1028,7 20
09.12.2019 00:00:00 8,4 6,2 4 2 SSE 1028,7 19
08.12.2019 23:00:00 8,6 6,3 11 6 W 1028,0 7
08.12.2019 22:00:00 9,9 6,6 9 5 SSW 1027,6 20
08.12.2019 21:00:00 10,0 6,9 5 3 WSW 1027,7 30
08.12.2019 20:00:00 11,5 6,6 8 4 W 1027,1 30
08.12.2019 19:00:00 11,7 6,4 5 3 WSW 1026,4 30
08.12.2019 18:00:00 12,3 6,6 11 6 W 1025,6 30
08.12.2019 17:00:00 14,6 6,1 16 9 W 1024,5 30
08.12.2019 16:00:00 16,0 5,9 13 7 W 1024,0 25
08.12.2019 15:00:00 14,7 6,6 8 4 WSW 1024,4 26
08.12.2019 14:00:00 13,3 6,6 0 0 N 1025,6 20
08.12.2019 13:00:00 11,2 6,5 0 0 N 1027,1 15
08.12.2019 12:00:00 9,1 6,1 0 0 N 1028,6 13
08.12.2019 11:00:00 5,8 5,3 0 0 N 1029,6 11
08.12.2019 10:00:00 2,7 2,4 0 0 N 1030,1 3,0
08.12.2019 09:00:00 0,1 -0,2 2 1 WNW 1030,5 -
08.12.2019 08:00:00 0,2 -0,2 0 0 N 1029,9 6
08.12.2019 07:00:00 0,8 0,4 4 2 WSW 1029,3 9
08.12.2019 06:00:00 0,9 0,5 0 0 N 1028,6 12
08.12.2019 05:00:00 1,6 1,2 4 2 WSW 1028,7 11
08.12.2019 04:00:00 2,3 1,9 8 4 SW 1028,7 10
08.12.2019 03:00:00 2,5 1,9 0 0 N 1028,6 9
08.12.2019 02:00:00 3,5 2,9 5 3 SW 1028,3 10
08.12.2019 01:00:00 3,5 2,8 0 0 N 1028,3 9
08.12.2019 00:00:00 4,6 3,9 0 0 N 1028,0 15
07.12.2019 23:00:00 5,5 4,4 2 1 S 1027,4 11
07.12.2019 22:00:00 6,5 5,1 0 0 N 1026,8 15
07.12.2019 21:00:00 8,0 6,0 8 4 SSW 1025,8 21
07.12.2019 20:00:00 8,6 6,2 9 5 SW 1025,3 23
07.12.2019 19:00:00 10,5 6,4 5 3 SW 1024,1 30
07.12.2019 18:00:00 13,1 6,7 5 3 W 1022,9 30
07.12.2019 17:00:00 15,7 6,9 5 3 W 1021,6 24
07.12.2019 16:00:00 15,8 6,1 5 3 W 1021,3 30
07.12.2019 15:00:00 16,4 6,2 0 0 N 1021,1 30
07.12.2019 14:00:00 15,3 5,9 0 0 N 1022,0 30
07.12.2019 13:00:00 13,5 6,1 0 0 N 1023,3 20
07.12.2019 12:00:00 12,0 6,5 0 0 N 1024,4 21
07.12.2019 11:00:00 9,3 6,0 0 0 N 1025,2 14
07.12.2019 10:00:00 6,5 5,6 0 0 N 1025,6 15
07.12.2019 09:00:00 2,9 2,5 0 0 N 1026,1 12
07.12.2019 08:00:00 2,3 1,7 0 0 N 1025,7 10
07.12.2019 07:00:00 2,8 2,2 0 0 N 1025,2 15
07.12.2019 06:00:00 3,8 3,2 0 0 N 1024,6 11
07.12.2019 05:00:00 5,0 4,3 0 0 N 1024,2 18
07.12.2019 04:00:00 5,4 4,5 0 0 N 1024,2 17
07.12.2019 03:00:00 5,8 5,1 4 2 SSW 1024,0 20
07.12.2019 02:00:00 6,0 5,0 5 3 WSW 1023,7 25
07.12.2019 01:00:00 6,1 4,7 0 0 N 1023,7 29
07.12.2019 00:00:00 7,3 5,3 5 3 ESE 1023,2 30
06.12.2019 23:00:00 7,0 5,3 5 3 S 1023,0 24
06.12.2019 22:00:00 7,6 5,4 5 3 S 1022,5 30
06.12.2019 21:00:00 9,1 6,0 5 3 SSW 1021,9 30
06.12.2019 20:00:00 11,7 6,2 5 3 E 1020,7 30
06.12.2019 19:00:00 12,8 6,4 15 8 NE 1019,7 30
06.12.2019 18:00:00 13,4 6,9 9 5 NE 1018,8 30
06.12.2019 17:00:00 15,9 6,9 5 3 NE 1017,8 30
06.12.2019 16:00:00 16,9 6,9 5 3 N 1017,1 35
06.12.2019 15:00:00 16,9 6,8 4 2 ESE 1017,2 30
06.12.2019 14:00:00 16,4 6,5 4 2 SSW 1018,1 20
06.12.2019 13:00:00 14,7 6,8 2 1 SSE 1019,3 30
06.12.2019 12:00:00 13,1 7,1 0 0 N 1020,5 30
06.12.2019 11:00:00 9,0 6,6 0 0 N 1022,0 18
06.12.2019 10:00:00 6,6 5,7 0 0 N 1022,5 20
06.12.2019 09:00:00 2,2 1,8 0 0 N 1023,1 11
06.12.2019 08:00:00 1,7 1,3 0 0 N 1022,4 10
06.12.2019 07:00:00 1,3 0,7 0 0 N 1022,0 8
06.12.2019 06:00:00 2,4 1,8 0 0 N 1021,0 10
06.12.2019 05:00:00 3,0 2,4 5 3 S 1020,7 9
06.12.2019 04:00:00 4,0 3,2 0 0 N 1020,2 10
06.12.2019 03:00:00 4,8 3,9 8 4 SSW 1019,8 14
06.12.2019 02:00:00 4,9 3,7 4 2 S 1019,6 16
06.12.2019 01:00:00 5,7 4,0 8 4 SSE 1019,5 25
06.12.2019 00:00:00 6,1 4,6 4 2 SSE 1019,5 30
05.12.2019 23:00:00 6,1 4,6 0 0 N 1019,4 30
05.12.2019 22:00:00 7,4 5,3 4 2 ESE 1018,7 30
05.12.2019 21:00:00 8,7 6,0 2 1 SSE 1017,7 18
05.12.2019 20:00:00 10,7 6,4 0 0 N 1016,7 18
05.12.2019 19:00:00 11,3 6,7 4 2 W 1015,5 30
05.12.2019 18:00:00 11,7 7,0 4 2 W 1015,0 23
05.12.2019 17:00:00 12,7 5,8 5 3 NW 1014,2 21
05.12.2019 16:00:00 13,5 6,2 8 4 W 1013,5 16
05.12.2019 15:00:00 13,5 4,9 0 0 N 1013,4 21
05.12.2019 14:00:00 12,3 5,4 0 0 N 1014,1 11
05.12.2019 13:00:00 9,8 5,6 0 0 N 1015,3 10
05.12.2019 12:00:00 7,8 5,4 4 2 WNW 1016,4 7
05.12.2019 11:00:00 6,1 5,2 0 0 N 1016,7 6
05.12.2019 10:00:00 4,2 3,8 0 0 N 1016,7 9
05.12.2019 09:00:00 4,1 3,8 0 0 N 1016,0 8

tt = temperature
td = dewpoint
ff = wind speed
dd = wind direction
ppp = reduced air pressure
vv = visibility

Next stations